Location: Croisilles
(50.1998°N, 2.8793°E)
Time: 02:54:09
(UTC+00:00)

Meteor 2-8 Rocket - Pass Details

Date: 21 January 2021
Orbit: 937 x 957 km, 82.5° (Epoch: 24 February)

Event Time Altitude Azimuth Distance (km) Brightness Sun altitude
Rises 18:30:02 0° 350° (N) 3,615 7.5 -19.8°
Reaches altitude 10° 18:32:33 10° 353° (N) 2,668 6.8 -20.2°
Maximum altitude 18:38:38 72° 78° (ENE) 993 4.3 -21.1°
Drops below altitude 10° 18:44:43 10° 163° (SSE) 2,663 6.7 -22.1°
Sets 18:47:13 0° 165° (SSE) 3,607 7.4 -22.5°
